Flag for U.S.A. Weather past 2 weeks in Redmond, Washington, U.S.A.

Now
34 °F

Clear.


Feels Like: 34 °F
Forecast: 30 / 53 °F
Wind: No wind

Location: Seattle Boeing Field

Current Time: Mar 4, 2015 at 3:50:27 AM

Latest Report: Mar 4, 2015 at 2:53 AM


Visibility: 10 mi

Pressure: 30.28 "Hg

Humidity: 70%

Dew point: 25 °F

Location of RedmondLocation

Historic Weather in Redmond — Graph

°F

Redmond temperature yesterday

Maximum temperature yesterday: 52 °F (at 1:53 PM)
Minimum temperature yesterday: 32 °F (at 5:53 AM)
Average temperature yesterday: 43 °F

Past Weeks' High & Low Weather Summary

 TemperatureHumidityPressure
High60 °F (Feb 17, 1:53 PM)93% (Feb 22, 7:53 AM)30.47 "Hg (Feb 22, 7:53 AM)
Low32 °F (Mar 3, 5:53 AM)18% (Mar 3, 3:53 PM)29.72 "Hg (Feb 27, 5:53 AM)
Average48 °F65%30.22 "Hg
* Reported Feb 17 2:53 AM — Mar 4 2:53 AM, Redmond, Weather by CustomWeather, © 2015

Note: Actual official high and low records may vary slightly from our data, if they occured in-between our weather recording intervals... More about our weather records

Advertising

Redmond weather history for previous 24 hours

 ConditionsComfort  
Time TempWeatherWind HumidityBarometerVisibility
2:53 AM
Wed, Mar 4
34 °FClear.No wind70%30.28 "Hg10 mi
1:53 AM33 °FClear.3 mph66%30.28 "Hg10 mi
12:53 AM34 °FClear.3 mph67%30.28 "Hg10 mi
11:53 PM
Tue, Mar 3
36 °FClear.No wind62%30.27 "Hg10 mi
10:53 PM39 °FClear.No wind55%30.26 "Hg10 mi
9:53 PM41 °FClear.No wind49%30.25 "Hg10 mi
8:53 PM41 °FClear.No wind45%30.24 "Hg10 mi
7:53 PM44 °FPassing clouds.No wind38%30.23 "Hg10 mi
6:53 PM49 °FPassing clouds.3 mph32%30.23 "Hg10 mi
5:53 PM50 °FPassing clouds.5 mph24%30.22 "Hg10 mi
4:53 PM51 °FPartly sunny.5 mph21%30.22 "Hg10 mi
3:53 PM52 °FScattered clouds.5 mph18%30.22 "Hg10 mi
2:53 PM52 °FScattered clouds.6 mph25%30.22 "Hg10 mi
1:53 PM52 °FPassing clouds.6 mph27%30.23 "Hg10 mi
12:53 PM51 °FSunny.9 mph23%30.24 "Hg10 mi
11:53 AM50 °FScattered clouds.No wind39%30.26 "Hg10 mi
10:53 AM48 °FSunny.3 mph52%30.26 "Hg10 mi
9:53 AM45 °FSunny.No wind60%30.27 "Hg10 mi
8:53 AM40 °FSunny.6 mph73%30.25 "Hg10 mi
7:53 AM36 °FPassing clouds.No wind79%30.23 "Hg10 mi
6:53 AM33 °FSunny.6 mph82%30.23 "Hg10 mi
5:53 AM32 °FClear.8 mph82%30.22 "Hg10 mi
4:53 AM36 °FClear.3 mph79%30.22 "Hg10 mi
3:53 AM36 °FClear.6 mph79%30.22 "Hg10 mi
Weather by CustomWeather, © 2015

See weather overviewHow to use our weather pages